This is the latest recevied weather packets stored in our database for station/object KD0SBN-3. If no packets are shown the sender has not sent any weather packets the latest 10 day(s).
| Time | Temp. | Humidity | Pressure | Rain* | Wind** | Luminosity | Snow |
|---|---|---|---|---|---|---|---|
| 1778037779 | -1.11° C | 96% | 1018.9 hPa | 0 mm | - | 0 W/m² | - |
| 1778037475 | 0° C | 95% | 1018.6 hPa | 0 mm | - | 0 W/m² | - |
| 1778037173 | 0.56° C | 96% | 1018.3 hPa | 0 mm | - | 0 W/m² | - |
| 1778036871 | 0.56° C | 96% | 1018.1 hPa | 1.78 mm | - | 0 W/m² | - |
| 1778036569 | 0.56° C | 95% | 1018.1 hPa | 1.78 mm | - | 0 W/m² | - |
| 1778036265 | 0.56° C | 95% | 1018.2 hPa | 0 mm | - | 0 W/m² | - |
| 1778035961 | 0.56° C | 95% | 1018.3 hPa | 0 mm | - | 0 W/m² | - |
| 1778035658 | 1.11° C | 95% | 1018.2 hPa | 0 mm | - | 0 W/m² | - |
| 1778035355 | 0.56° C | 95% | 1018.5 hPa | 1.78 mm | - | 0 W/m² | - |
| 1778035051 | 1.11° C | 94% | 1018.5 hPa | 1.78 mm | - | 0 W/m² | - |
| 1778034749 | 1.11° C | 94% | 1018.6 hPa | 1.27 mm | - | 0 W/m² | - |
| 1778034445 | 1.11° C | 94% | 1018.6 hPa | 1.27 mm | - | 0 W/m² | - |
| 1778034143 | 1.11° C | 95% | 1018.3 hPa | 0 mm | - | 0 W/m² | - |
| 1778033841 | 0.56° C | 96% | 1018.2 hPa | 0 mm | - | 0 W/m² | - |
| 1778033538 | 0.56° C | 96% | 1017.9 hPa | 0 mm | - | 0 W/m² | - |
| 1778033234 | 0° C | 96% | 1017.9 hPa | 0 mm | - | 0 W/m² | - |
| 1778032933 | 0° C | 96% | 1018.2 hPa | 0 mm | - | 0 W/m² | - |
| 1778032630 | -0.56° C | 96% | 1018.2 hPa | 0 mm | - | 0 W/m² | - |
| 1778032327 | -0.56° C | 96% | 1018.2 hPa | 0 mm | - | 0 W/m² | - |
| 1778032024 | 0° C | 96% | 1017.9 hPa | 0 mm | - | 0 W/m² | - |
| 1778031720 | 0° C | 96% | 1017.8 hPa | 0 mm | - | 1 W/m² | - |
| 1778031418 | 0° C | 96% | 1017.8 hPa | 0 mm | - | 1 W/m² | - |
| 1778031115 | 0° C | 96% | 1017.7 hPa | 0 mm | - | 2 W/m² | - |
| 1778030811 | 0° C | 96% | 1017.5 hPa | 0 mm | - | 2 W/m² | - |
| 1778030508 | 0.56° C | 96% | 1017.5 hPa | 0 mm | - | 3 W/m² | - |
* Rain latest hour (hover to see other rain measurements)
** Current wind speed in m/s (hover to see current wind gust speed)